GW6586 Weather Reports


time (UTC)temp
F
wind
direction
speed
knots
gust
knots
rain 1hr
in
rain 24hr
in
rain mn
in
humidity
%
barometer
mb
20260506013013 62 60 9.6 17.4 0.00 0.00 0.00 67 1029.0
20260506011528 61 105 10.4 16.5 0.00 0.00 0.00 68 1029.0
20260506010011 60 111 10.4 15.6 0.00 0.00 0.00 69 1028.8
20260506004519 60 84 10.4 14.8 0.00 0.00 0.00 71 1028.6
20260506003024 59 90 9.6 15.6 0.00 0.00 0.00 72 1028.5
20260506001516 58 146 9.6 14.8 0.00 0.00 0.00 73 1028.4
20260506000022 57 103 7.0 13.0 0.00 0.00 0.00 75 1028.4
20260505234600 56 102 6.1 13.0 0.00 0.00 0.00 77 1028.2
20260505231524 54 108 7.8 13.0 0.00 0.00 0.00 79 1027.7
20260505230014 54 117 7.0 12.2 0.00 0.00 0.00 79 1027.7
20260505224528 54 88 7.8 12.2 0.00 0.00 0.00 77 1027.3
20260505223024 55 117 8.7 15.6 0.00 0.00 0.00 77 1027.1
20260505221518 55 113 9.6 13.9 0.00 0.00 0.00 78 1027.0
20260505220008 54 100 8.7 13.0 0.00 0.00 0.00 78 1027.0
20260505214519 54 109 7.0 12.2 0.00 0.00 0.00 78 1026.9
20260505213023 54 124 7.8 12.2 0.00 0.00 0.00 77 1026.8
20260505211507 55 112 8.7 12.2 0.00 0.00 0.00 77 1026.8
20260505210022 55 107 7.8 12.2 0.00 0.00 0.00 77 1026.7
20260505204503 55 118 6.1 12.2 0.00 0.00 0.00 76 1026.6
20260505201522 56 93 8.7 14.8 0.00 0.00 0.00 74 1026.6
20260505200012 56 125 7.8 13.9 0.00 0.00 0.00 74 1026.7
20260505194516 56 119 7.8 13.9 0.00 0.00 0.00 73 1026.6
20260505193023 56 144 8.7 13.9 0.00 0.00 0.00 73 1026.5
20260505191511 56 132 8.7 12.2 0.00 0.00 0.00 72 1026.6
20260505190017 56 128 7.0 10.4 0.00 0.00 0.00 72 1026.5
20260505184528 56 138 6.1 9.6 0.00 0.00 0.00 71 1026.6
20260505183034 57 107 6.1 10.4 0.00 0.00 0.00 70 1026.7
20260505181525 57 118 6.1 10.4 0.00 0.00 0.00 69 1026.6
20260505180008 58 113 7.0 10.4 0.00 0.00 0.00 68 1026.4
20260505174517 59 117 8.7 15.6 0.00 0.00 0.00 66 1026.3
20260505173023 59 126 9.6 14.8 0.00 0.00 0.00 66 1026.3
20260505171513 59 124 9.6 13.9 0.00 0.00 0.00 66 1026.2
20260505170019 60 142 8.7 17.4 0.00 0.00 0.00 65 1026.1
20260505164525 59 108 8.7 13.9 0.00 0.00 0.00 66 1026.2
20260505163014 59 130 7.0 12.2 0.00 0.00 0.00 67 1026.2
20260505161527 59 138 7.0 13.9 0.00 0.00 0.00 67 1026.1
20260505153024 57 137 4.3 7.8 0.00 0.00 0.00 76 1026.1
20260505151514 57 94 3.5 7.0 0.00 0.00 0.00 77 1026.1
20260505124526 60 148 2.6 7.0 0.00 0.00 0.00 74 1026.1
20260505123016 60 160 4.3 7.0 0.00 0.00 0.00 74 1026.1
20260505120028 61 182 3.5 6.1 0.00 0.00 0.00 73 1026.2
20260505114520 61 147 3.5 6.1 0.00 0.00 0.00 75 1025.9
20260505113030 61 141 2.6 5.2 0.00 0.00 0.00 77 1025.9
20260505111525 62 151 1.7 4.3 0.00 0.00 0.00 76 1025.9
20260505101527 63 188 1.7 7.8 0.00 0.00 0.00 77 1025.3
20260505100027 64 232 4.3 8.7 0.00 0.00 0.00 76 1025.1
20260505094529 64 215 6.1 8.7 0.00 0.00 0.00 75 1025.1
20260505091518 65 217 6.1 14.8 0.00 0.00 0.00 74 1025.1
20260505090025 65 256 8.7 14.8 0.00 0.00 0.00 73 1025.1
20260505084534 66 219 8.7 13.9 0.00 0.00 0.00 70 1025.0
20260505083021 66 224 9.6 13.9 0.00 0.00 0.00 70 1025.0
20260505081527 66 244 7.0 13.0 0.00 0.00 0.00 70 1024.8
20260505080015 67 186 8.7 12.2 0.00 0.00 0.00 69 1024.8
20260505074523 67 210 7.0 13.9 0.00 0.00 0.00 69 1024.7
20260505073037 67 227 6.1 13.9 0.00 0.00 0.00 69 1024.6
20260505071521 67 238 9.6 13.9 0.00 0.00 0.00 68 1024.6
20260505070036 68 209 7.0 12.2 0.00 0.00 0.00 68 1024.6
20260505064527 68 215 5.2 13.0 0.00 0.00 0.00 68 1024.7
20260505063022 67 227 10.4 13.0 0.00 0.00 0.00 66 1024.6
20260505061507 68 257 7.0 11.3 0.00 0.00 0.00 63 1024.6
20260505053007 68 256 4.3 7.0 0.00 0.00 0.00 60 1024.9
20260505051514 67 247 6.1 9.6 0.00 0.00 0.00 61 1024.9
20260505041514 70 260 3.5 6.1 0.00 0.00 0.00 54 1025.6
20260505040013 70 39 2.6 7.8 0.00 0.00 0.00 53 1025.8
20260505034510 70 82 3.5 7.8 0.00 0.00 0.00 53 1026.1
20260505033010 68 101 2.6 7.8 0.00 0.00 0.00 55 1026.3
20260505031520 68 33 3.5 7.8 0.00 0.00 0.00 56 1026.3
20260505030010 67 53 2.6 8.7 0.00 0.00 0.00 57 1026.4
20260505024513 66 86 3.5 10.4 0.00 0.00 0.00 59 1026.5
20260505023012 65 155 2.6 8.7 0.00 0.00 0.00 62 1026.6
20260505021509 65 75 4.3 8.7 0.00 0.00 0.00 62 1026.6
20260505020010 64 63 3.5 8.7 0.00 0.00 0.00 63 1026.6
20260505014509 63 103 6.1 10.4 0.00 0.00 0.00 64 1026.6